sat.trackr.live / text

‹ back to catalog

STARLINK-33891

NORAD 63827 · 2025-092Z

PAYLOAD ACTIVE UNKNOWN

§ Identity

Operator
Country
US
Launch date
2025-05-04
Launch site
AFETR
Launch vehicle
Mass (kg)
RCS (m²)

Purposes: comms

External: N2YO · Heavens-Above · Gunter

§ Orbital elements

Epoch: 2026-09-20T02:33:13.508640Z

Period
94.27 min
Inclination
43.0008°
Eccentricity
0.0001843
Mean motion
15.27589171 rev/d
Perigee alt
481.8 km
Apogee alt
484.3 km
Semi-major
6,861.2 km
B*
3.8015e-4
RAAN
154.9649°
Arg perigee
258.7818°
Mean anomaly
101.2827°
Rev number
7,828

§ Raw data

STARLINK-338911 63827U 25092Z   26263.10640635  .00010216  00000+0  38015-3 0  99972 63827  43.0008 154.9649 0001843 258.7818 101.2827 15.27589171 78288

JSON: /api/v1/satellites/63827 · /tle

For live sub-satellite position, see the globe view (requires WebGL).

§ Visibility from observer

Set your observer location to see the next 7 days of passes ≥ 10°. The values pass through the URL so the page stays shareable.

No JS? Fill the form by hand. The geolocation button needs JavaScript.